Temperature
28 27 27 27 27 27 27 26 26 27 28 28 27 27 26 26 25 25 24 24 22 21 20 19 18 17 17 16 16 16 16 15 15 15 15 15 15 14 14 14 14 14 14 14
28 27 28 29 28 27 27 27 26 26 27 28 27 27 27 27 26 25 24 23 22 21 20 19 18 17 17 16 16 15 15 15 15 15 15 15 14 14 14 14 14 13 13 13
28 29 29 29 28 28 27 27 26 27 27 28 27 27 27 27 26 25 24 23 22 21 20 18 17 17 16 16 15 15 15 15 15 15 14 14 14 14 14 14 13 13 13 13
29 30 29 29 28 28 27 28 27 27 27 27 27 26 27 26 26 25 24 23 22 21 20 19 17 17 16 16 15 15 15 15 14 14 14 14 13 13 13 13 13 13 13 13
28 30 29 29 29 29 28 29 28 28 27 27 27 26 26 26 25 24 24 23 22 21 20 19 18 17 16 15 15 15 14 14 14 14 14 14 13 13 13 13 13 13 13 13
29 30 30 29 30 29 29 28 28 27 27 25 25 25 25 26 25 25 24 23 22 21 20 19 17 16 16 15 15 14 14 14 14 14 13 13 13 13 13 13 12 12 12 12
28 29 30 30 29 29 29 27 26 25 24 24 25 25 25 26 26 26 24 23 22 20 19 18 17 16 15 15 14 14 13 13 13 13 13 13 13 13 12 12 12 12 12 12
27 27 29 30 29 28 28 27 25 24 24 25 25 24 25 26 25 24 23 22 21 20 19 17 16 16 15 15 14 14 13 13 13 13 13 12 12 12 12 12 12 12 11 11
26 27 29 30 30 29 28 28 27 25 25 25 24 24 24 25 24 23 22 21 20 19 18 17 16 15 15 14 14 14 13 13 13 13 12 12 12 12 11 11 11 11 11 11
27 26 28 29 30 30 29 29 27 25 24 23 24 24 23 23 22 22 21 21 20 19 18 17 16 15 14 14 14 13 13 13 13 12 12 12 12 11 11 11 11 11 11 11
27 25 26 28 28 28 28 28 27 27 26 24 23 23 23 22 23 22 21 21 19 18 17 16 15 15 14 14 13 13 13 12 12 12 12 12 11 11 11 11 11 11 10 10
27 26 25 26 27 28 28 27 27 25 25 25 24 23 24 24 23 22 21 20 19 18 17 16 15 14 14 13 13 13 13 12 12 12 12 11 11 11 11 11 10 10 10 10
26 25 24 24 25 26 26 26 27 26 26 25 24 23 23 23 22 22 21 20 18 17 16 15 14 14 13 13 13 12 12 12 12 12 11 11 11 11 10 10 10 10 10 10
25 25 24 23 23 23 24 25 26 26 25 24 24 22 23 22 22 21 20 19 18 17 16 15 14 13 13 13 13 12 12 12 12 11 11 11 11 10 10 10 10 10 10 10
25 24 25 25 25 24 25 25 26 25 25 24 24 23 23 23 22 21 20 19 18 16 15 15 14 13 13 12 12 12 12 12 11 11 11 11 11 10 10 10 10 10 10 10
24 23 24 24 25 25 25 26 25 25 25 25 24 23 23 22 22 21 20 19 18 16 15 15 14 13 13 12 12 12 12 11 11 11 11 11 11 10 10 10 10 10 10 10
23 22 22 23 24 24 23 25 25 25 25 25 23 23 23 22 21 20 19 18 17 16 16 15 14 13 13 12 12 12 12 11 11 11 11 11 11 10 10 10 10 10 9 9
22 22 22 23 23 21 23 26 26 25 25 25 24 23 23 21 20 19 19 18 17 16 15 14 14 13 13 12 12 12 11 11 11 11 11 11 10 10 10 10 10 10 9 9
23 22 22 22 22 22 24 25 25 24 24 24 23 23 22 21 20 19 18 18 17 16 15 14 14 13 12 12 12 11 11 11 11 11 11 11 11 10 10 10 10 10 9 9
24 23 22 22 21 21 23 25 25 25 23 24 23 22 22 21 20 19 17 17 16 15 14 14 13 13 12 12 12 11 11 11 11 11 11 11 11 10 10 10 10 10 10 10
23 22 22 22 21 21 24 25 25 22 21 23 22 22 21 20 19 18 17 16 15 15 14 13 13 13 12 12 11 11 11 11 11 11 11 11 10 10 10 10 10 10 10 10
22 22 21 21 20 21 24 24 22 22 22 22 21 21 20 19 18 17 16 16 15 14 14 13 13 12 12 12 11 11 11 11 11 11 11 11 10 10 10 10 10 10 10 10
22 21 21 21 21 22 22 21 21 22 21 21 21 20 19 18 17 17 16 15 15 14 14 13 13 12 12 12 11 11 11 11 11 11 10 10 10 10 10 10 10 10 10 10
21 21 21 20 21 21 21 21 20 20 20 20 20 20 19 18 17 16 16 15 15 14 14 13 13 12 12 12 11 11 11 11 11 10 10 10 10 10 10 10 10 10 11 11
20 20 20 19 20 20 20 20 19 20 20 20 19 19 19 18 17 16 15 15 14 14 13 13 13 13 12 12 11 11 11 11 11 11 10 10 10 10 11 11 11 11 11 11
20 20 19 19 19 19 20 19 19 19 19 19 19 18 18 17 16 16 15 14 14 14 13 13 13 13 12 12 12 11 11 11 11 11 10 11 11 11 11 11 11 11 11 11
Wind_Speed
9 9 8 7 6 7 7 7 7 6 5 7 8 9 11 14 12 11 10 11 11 10 11 10 9 9 8 7 7 6 5 4 3 2 2 1 1 1 1 2 3 3 3 4
9 10 9 6 4 8 8 6 5 4 5 6 8 9 10 13 14 11 10 10 10 10 11 11 10 9 8 7 7 6 6 5 3 2 1 1 1 0 1 1 2 3 3 4
8 5 4 4 6 8 7 6 6 5 5 8 8 10 11 12 12 11 10 9 10 10 11 11 9 9 8 7 7 5 5 4 3 2 1 1 1 0 0 1 1 2 3 3
7 7 6 7 7 7 8 5 4 6 7 7 9 9 9 11 10 8 7 7 8 9 11 11 10 9 9 8 7 6 6 4 3 2 2 1 1 1 0 1 1 1 1 2
8 7 6 7 6 6 8 6 6 8 10 10 9 9 6 8 9 9 8 9 9 10 11 12 12 9 8 8 7 6 6 5 4 2 2 1 0 0 1 1 0 1 1 1
11 8 6 7 6 6 7 9 10 9 9 11 9 9 6 5 7 8 9 10 10 9 10 10 10 9 8 8 6 6 6 4 4 3 2 1 1 0 0 1 1 1 1 0
10 9 8 7 8 8 8 9 7 7 6 8 8 7 3 3 4 5 7 8 10 11 11 10 10 9 8 7 6 6 6 4 4 3 2 1 1 1 1 2 2 2 1 1
10 8 7 7 8 8 9 9 8 8 10 9 6 5 1 5 7 7 7 7 8 9 10 9 9 8 8 7 6 6 6 4 3 3 3 2 1 1 1 1 2 2 1 1
9 9 7 7 7 9 10 9 8 9 12 11 6 3 3 3 6 7 7 5 7 8 8 8 8 8 7 7 6 6 6 4 4 3 3 3 2 1 1 2 2 1 1 1
9 11 10 9 8 10 11 9 6 7 8 10 8 4 1 2 4 5 5 5 6 7 8 8 7 7 6 5 5 5 5 5 4 3 2 2 1 1 1 1 1 1 1 2
9 9 10 10 9 9 10 10 9 8 8 10 10 4 1 2 3 6 5 7 8 8 9 9 8 7 7 6 5 5 4 4 3 3 2 1 1 0 1 1 0 0 1 1
6 6 9 11 11 12 10 10 9 9 9 10 10 5 1 1 3 4 5 6 7 9 9 9 9 8 7 6 5 5 4 4 2 2 2 1 1 0 0 0 0 0 1 1
7 5 8 8 7 7 9 10 11 10 9 10 10 3 2 2 3 4 5 6 8 9 9 9 8 7 6 6 5 4 4 3 3 3 2 2 1 0 0 0 1 1 1 1
5 8 10 11 10 10 12 13 13 11 9 10 8 5 4 4 3 5 7 7 9 9 8 8 8 7 6 5 4 4 4 3 3 3 2 2 1 0 0 0 0 0 1 1
5 10 12 13 12 14 15 14 12 11 10 10 8 5 4 1 3 6 7 8 9 9 8 8 8 7 6 5 5 4 3 3 2 2 2 2 2 1 1 1 1 0 1 1
5 9 12 14 13 14 15 13 11 11 9 9 7 4 1 2 2 6 7 7 8 8 8 8 8 8 7 6 6 5 4 4 3 3 3 3 3 2 1 1 1 1 1 2
8 9 12 14 12 13 14 12 11 9 7 7 7 3 1 2 2 4 7 7 7 7 8 8 8 8 7 6 5 5 4 4 4 3 3 3 3 3 2 1 2 2 1 2
11 11 9 13 12 13 9 8 6 6 6 5 3 1 1 3 3 2 4 7 7 7 7 8 7 7 7 6 6 4 4 4 3 3 3 3 3 3 2 2 2 1 1 1
12 11 10 10 11 11 10 8 6 6 5 2 1 2 3 4 4 4 4 6 7 7 6 6 6 7 7 7 6 5 4 3 3 3 3 3 3 2 2 2 1 0 1 1
9 9 10 11 12 11 8 7 7 5 5 1 1 1 1 2 2 3 5 6 7 7 6 6 7 8 7 7 6 5 4 4 3 3 2 2 2 2 2 3 2 1 1 2
8 9 12 13 12 9 8 7 6 6 1 2 1 1 1 2 2 5 6 6 8 8 8 7 8 7 6 6 6 5 4 3 3 3 2 2 2 1 2 2 2 2 2 3
9 9 10 9 10 8 4 4 3 1 2 2 2 3 5 6 7 7 7 8 9 9 9 8 7 7 6 7 6 5 4 3 3 2 2 2 1 1 1 2 2 2 3 3
8 6 6 5 4 3 3 3 1 2 2 2 2 4 6 6 6 7 7 8 9 8 8 7 7 7 6 6 6 5 4 3 3 2 2 2 2 1 1 2 3 3 3 4
7 7 7 6 5 5 4 3 3 2 1 1 2 4 6 6 6 6 6 7 8 8 8 8 7 7 7 7 6 5 5 4 4 3 2 2 2 3 2 2 3 3 3 2
10 8 7 7 6 6 4 3 4 2 2 2 2 3 5 6 7 7 6 5 7 7 7 7 7 7 7 7 6 6 5 5 4 3 3 3 3 3 3 3 3 3 2 2
10 9 9 8 7 7 6 5 3 2 2 2 2 2 4 5 7 7 6 6 7 8 8 7 7 7 7 7 6 6 5 5 4 4 3 3 4 3 4 3 3 5 6 6
Wind_Direction
220 233 241 232 226 269 276 260 255 254 228 221 219 205 188 185 197 196 187 175 174 170 162 152 147 143 139 136 132 131 128 121 123 123 128 146 154 146 119 99 74 37 6 345
229 232 241 235 233 261 259 247 249 254 246 247 243 222 205 196 197 197 192 179 173 165 157 154 151 149 147 143 140 136 132 131 127 113 118 144 125 107 103 73 64 47 17 353
252 249 233 235 235 251 259 255 259 234 237 240 247 242 219 204 197 193 193 183 179 174 165 159 158 157 151 143 140 138 132 132 129 116 104 82 88 93 73 91 81 42 20 6
262 260 245 240 243 255 274 258 267 268 256 254 241 250 220 202 191 189 187 186 182 176 169 161 163 163 153 146 142 136 130 129 126 119 114 126 164 163 61 63 70 35 359 358
265 260 250 255 253 246 277 292 273 267 266 270 268 272 242 195 182 187 187 188 182 178 169 165 163 159 152 149 144 138 132 133 128 137 141 150 113 70 58 52 336 283 285 339
267 264 263 271 279 269 275 282 270 264 267 270 266 265 254 212 196 193 179 174 172 165 148 147 149 151 151 146 143 141 139 140 144 157 154 165 158 215 276 293 271 272 266 254
264 248 240 248 260 258 261 272 279 275 256 261 274 266 241 174 155 167 161 161 159 149 143 147 150 155 146 144 144 145 148 154 160 162 165 187 205 239 241 263 283 281 276 317
287 271 240 234 248 262 257 261 273 291 294 293 266 251 109 81 86 95 109 121 133 141 146 150 153 154 150 153 159 154 157 160 169 173 179 187 217 248 265 285 286 289 317 335
301 297 281 249 248 257 266 269 274 278 282 290 281 265 133 103 97 100 109 126 131 138 144 147 145 147 150 160 164 162 160 163 174 180 184 183 184 221 288 290 285 320 310 294
294 294 291 283 259 248 263 278 288 285 293 291 282 289 304 181 154 149 161 152 133 134 141 139 135 134 129 137 141 142 158 167 172 173 182 168 169 204 256 276 317 5 349 347
293 285 288 289 278 287 275 267 270 278 285 292 299 302 188 208 168 158 159 148 141 141 137 134 133 132 133 135 135 143 155 157 167 165 159 151 152 220 282 265 253 351 351 322
295 292 289 289 304 305 290 285 284 283 283 287 290 287 123 149 124 136 131 129 128 126 129 133 134 135 137 140 145 149 151 147 147 136 132 115 103 60 332 347 350 331 305 304
321 302 292 290 298 304 300 290 284 286 288 285 288 287 110 128 107 112 119 132 134 132 133 135 137 139 144 145 144 145 146 143 142 130 120 107 109 68 23 335 317 353 342 336
292 280 282 284 288 296 293 295 296 290 287 290 295 282 252 174 152 149 144 146 142 139 139 143 142 143 145 147 148 144 143 145 149 141 141 136 135 125 142 247 132 26 327 299
294 276 280 279 270 273 277 284 291 290 290 292 297 277 265 226 173 152 148 147 145 147 150 149 149 150 154 155 150 146 147 156 157 162 165 161 155 141 155 151 108 162 262 302
304 288 289 285 281 281 280 279 282 279 281 287 291 297 37 85 124 139 144 151 155 159 159 158 157 158 164 163 160 160 161 167 165 175 180 164 154 159 167 135 115 78 22 2
273 277 284 283 283 288 278 279 280 289 310 310 303 313 109 108 99 147 158 164 165 169 160 160 163 163 163 165 164 168 164 166 173 181 187 169 164 166 156 131 93 62 26 359
256 266 273 275 278 271 276 289 297 298 300 315 336 50 74 107 106 131 153 158 158 160 160 162 161 158 159 160 161 165 169 174 172 180 189 174 171 162 153 137 115 94 359 326
231 242 259 269 268 266 270 282 288 288 291 327 19 71 81 101 117 140 139 147 150 153 150 149 153 155 156 157 161 164 168 170 177 186 186 180 174 158 160 144 141 186 265 291
229 223 242 257 267 269 276 285 283 284 268 28 62 100 130 159 217 159 139 145 144 141 143 148 152 152 154 158 161 165 169 175 187 186 187 172 163 168 166 153 177 218 267 271
251 240 242 253 259 263 280 299 290 271 303 40 46 108 139 128 82 123 139 143 139 140 147 151 153 152 155 159 162 167 172 180 186 184 176 157 157 170 174 171 196 227 252 270
269 266 262 260 257 260 301 309 304 26 69 82 96 94 92 102 108 126 131 140 146 149 153 156 155 152 155 159 164 169 172 172 174 175 171 158 164 214 191 182 225 243 254 263
279 291 293 285 271 306 330 331 331 81 86 97 111 119 116 121 128 131 135 147 152 152 150 152 155 153 155 161 166 168 167 169 173 172 167 170 189 206 215 211 231 244 249 258
279 299 286 281 279 303 313 338 354 11 39 84 100 131 136 139 138 135 141 151 152 151 149 153 161 161 161 165 169 169 170 172 177 177 182 193 202 209 221 244 252 259 275 273
284 286 284 284 282 287 295 311 313 1 22 99 106 127 144 150 146 143 145 156 158 155 155 160 166 166 166 168 169 173 172 175 181 179 191 214 221 217 215 229 257 270 288 296
266 269 269 268 267 282 274 269 282 298 292 238 156 142 147 149 148 150 156 163 164 159 160 164 168 171 170 170 170 172 175 178 184 192 203 223 229 221 217 219 235 241 242 244
Height
1489 1490 1488 1483 1482 1484 1485 1487 1489 1483 1476 1480 1482 1485 1487 1490 1492 1495 1499 1503 1508 1512 1515 1518 1520 1522 1524 1526 1527 1528 1530 1532 1533 1534 1535 1536 1537 1537 1537 1537 1537 1537 1537 1537
1485 1487 1480 1477 1478 1481 1483 1487 1489 1484 1478 1480 1483 1483 1482 1485 1488 1491 1496 1500 1505 1509 1513 1516 1518 1521 1523 1525 1526 1527 1529 1530 1531 1532 1534 1535 1536 1536 1536 1537 1536 1536 1535 1535
1483 1479 1475 1477 1479 1481 1483 1485 1486 1484 1479 1477 1482 1484 1480 1480 1485 1490 1494 1498 1502 1506 1510 1513 1517 1519 1521 1523 1525 1526 1527 1528 1530 1531 1532 1533 1534 1535 1535 1535 1535 1534 1534 1533
1478 1474 1475 1476 1478 1479 1484 1476 1478 1481 1484 1486 1483 1492 1480 1478 1482 1487 1492 1496 1500 1505 1508 1511 1515 1518 1519 1521 1523 1524 1525 1527 1528 1529 1530 1531 1532 1533 1533 1533 1533 1533 1532 1531
1478 1472 1474 1476 1475 1475 1477 1472 1475 1478 1482 1485 1484 1489 1483 1477 1483 1486 1489 1494 1498 1502 1506 1509 1513 1515 1517 1520 1521 1522 1524 1525 1526 1527 1528 1530 1531 1531 1532 1531 1531 1531 1530 1529
1474 1470 1471 1472 1470 1472 1472 1474 1477 1478 1483 1498 1489 1491 1490 1479 1480 1482 1487 1491 1496 1499 1503 1507 1510 1513 1515 1518 1519 1521 1523 1524 1525 1526 1527 1528 1529 1529 1530 1529 1530 1529 1529 1528
1476 1471 1469 1470 1473 1473 1473 1482 1496 1500 1503 1502 1485 1488 1488 1474 1474 1478 1483 1488 1493 1497 1501 1505 1508 1511 1513 1516 1518 1519 1521 1523 1524 1525 1525 1526 1527 1528 1528 1528 1528 1528 1527 1527
1485 1483 1469 1467 1471 1475 1474 1480 1499 1513 1509 1495 1488 1492 1484 1475 1477 1480 1484 1488 1492 1496 1500 1504 1507 1510 1512 1514 1516 1518 1520 1521 1522 1523 1524 1525 1526 1526 1526 1526 1526 1526 1525 1525
1487 1483 1467 1464 1465 1468 1474 1476 1476 1490 1493 1496 1491 1485 1484 1479 1481 1484 1488 1491 1494 1496 1499 1503 1506 1509 1511 1513 1515 1517 1518 1520 1521 1522 1523 1523 1524 1524 1524 1524 1524 1524 1523 1523
1479 1486 1472 1465 1464 1465 1467 1469 1477 1489 1503 1506 1493 1492 1492 1486 1485 1486 1489 1491 1494 1496 1499 1502 1505 1507 1510 1512 1514 1516 1517 1519 1520 1521 1521 1522 1522 1522 1522 1522 1522 1521 1521 1521
1478 1487 1480 1472 1472 1473 1471 1472 1474 1478 1483 1496 1500 1498 1482 1484 1482 1484 1488 1490 1493 1496 1499 1501 1504 1507 1509 1512 1514 1515 1517 1518 1519 1519 1520 1520 1521 1521 1520 1520 1520 1520 1520 1519
1479 1482 1487 1480 1471 1468 1468 1470 1474 1486 1487 1482 1489 1495 1478 1479 1481 1483 1486 1490 1493 1496 1500 1502 1504 1507 1509 1511 1513 1514 1515 1516 1517 1518 1519 1519 1519 1519 1519 1519 1518 1518 1518 1518
1481 1487 1495 1492 1486 1479 1476 1472 1470 1472 1476 1482 1489 1494 1479 1480 1482 1484 1487 1490 1494 1497 1499 1502 1504 1507 1509 1511 1512 1514 1515 1516 1517 1517 1518 1518 1518 1517 1517 1517 1517 1517 1517 1517
1483 1486 1494 1503 1496 1487 1482 1476 1471 1473 1479 1482 1482 1486 1481 1480 1482 1485 1488 1491 1494 1497 1500 1502 1504 1507 1509 1511 1513 1514 1515 1516 1517 1517 1517 1517 1517 1517 1516 1516 1516 1516 1516 1516
1483 1486 1484 1482 1479 1479 1477 1474 1471 1472 1473 1478 1477 1478 1477 1477 1480 1484 1487 1490 1494 1497 1500 1502 1504 1506 1508 1510 1512 1513 1514 1515 1516 1517 1517 1517 1517 1517 1516 1516 1515 1515 1515 1515
1485 1487 1485 1483 1476 1474 1473 1470 1469 1469 1469 1470 1472 1475 1473 1476 1479 1483 1486 1489 1493 1496 1499 1501 1503 1505 1508 1509 1511 1513 1514 1515 1516 1516 1517 1517 1517 1517 1516 1515 1515 1515 1515 1515
1487 1489 1490 1487 1478 1477 1479 1469 1467 1466 1465 1468 1473 1473 1473 1476 1480 1483 1485 1488 1491 1495 1498 1500 1502 1504 1506 1508 1510 1512 1513 1514 1515 1516 1516 1517 1517 1517 1517 1516 1515 1515 1515 1515
1485 1487 1487 1484 1484 1495 1476 1462 1462 1465 1465 1465 1467 1470 1473 1477 1480 1483 1485 1487 1491 1494 1497 1499 1501 1503 1505 1508 1509 1511 1513 1514 1515 1515 1516 1516 1517 1517 1516 1516 1516 1516 1515 1515
1476 1481 1485 1485 1487 1483 1470 1463 1462 1465 1467 1465 1468 1471 1474 1477 1480 1483 1485 1487 1490 1493 1496 1498 1500 1503 1505 1507 1509 1510 1512 1513 1514 1515 1516 1516 1516 1517 1517 1517 1516 1516 1515 1515
1468 1473 1481 1482 1487 1488 1472 1462 1461 1464 1470 1467 1469 1472 1474 1476 1480 1484 1486 1488 1490 1493 1495 1498 1500 1502 1504 1506 1508 1510 1511 1513 1514 1515 1516 1516 1516 1516 1516 1516 1516 1516 1515 1515
1472 1472 1476 1477 1481 1476 1464 1461 1462 1473 1476 1469 1470 1473 1475 1477 1481 1484 1486 1488 1490 1492 1495 1497 1500 1502 1504 1506 1507 1509 1510 1512 1513 1515 1515 1516 1516 1516 1516 1516 1516 1516 1515 1514
1473 1474 1474 1474 1480 1479 1463 1463 1466 1470 1468 1469 1471 1473 1475 1478 1480 1483 1485 1487 1490 1492 1495 1497 1499 1501 1503 1505 1506 1508 1509 1511 1513 1514 1515 1515 1515 1516 1516 1515 1515 1515 1515 1514
1469 1471 1471 1471 1473 1467 1466 1466 1467 1467 1469 1470 1471 1474 1476 1479 1481 1484 1486 1488 1490 1492 1495 1497 1499 1501 1503 1504 1506 1507 1509 1511 1512 1513 1514 1514 1515 1515 1515 1515 1515 1515 1514 1514
1469 1469 1469 1469 1467 1467 1466 1466 1467 1468 1470 1471 1472 1474 1475 1478 1481 1484 1486 1488 1490 1492 1494 1497 1499 1501 1503 1504 1506 1507 1509 1510 1511 1512 1513 1513 1514 1514 1514 1514 1515 1514 1514 1513
1471 1471 1470 1469 1469 1468 1467 1468 1469 1469 1470 1471 1473 1474 1476 1479 1481 1483 1486 1488 1490 1492 1494 1496 1498 1500 1502 1504 1505 1507 1508 1509 1510 1511 1512 1513 1513 1513 1513 1513 1513 1513 1513 1512
1470 1470 1470 1469 1469 1468 1467 1467 1468 1470 1471 1471 1472 1474 1476 1478 1480 1483 1485 1487 1489 1491 1493 1496 1498 1500 1502 1503 1505 1506 1507 1508 1510 1510 1511 1512 1512 1513 1513 1512 1512 1512 1511 1510